Location: Asarope
(8.2500°N, 4.4833°E)
Time: 14:28:22
(UTC+00:00)

USA 234 - Pass Details

Date: 07 June 2020
Orbit: 1102 x 1106 km, 123.0° (Epoch: 14 May)

Event Time Altitude Azimuth Distance (km) Brightness Sun altitude
Rises 02:46:36 0° 44° (NE) 3,906 7.1 -35.0°
Reaches altitude 10° 02:49:08 10° 48° (NE) 2,949 6.3 -34.5°
Maximum altitude 02:55:30 58° 126° (SE) 1,269 3.5 -33.2°
Enters shadow 02:55:34 58° 128° (SE) 1,269 3.5 -33.2°
